{"data":{"norad_id":64256,"intl_designator":"2025-120A","name":"STARLINK-34329","alt_names":[],"object_type":"PAYLOAD","status":"ACTIVE","operator":null,"country":"US","launch_date":"2025-06-04","launch_site_code":"AFWTR","launch_vehicle":null,"mission":null,"orbit_class":"UNKNOWN","rcs_meters":null,"size_class":null,"mass_kg":null,"dimensions":null,"purposes":["comms"],"wikipedia_slug":null,"has_3d_model":false,"image_url":null,"decayed_at":null,"tle_current":{"epoch":"2026-09-20T08:36:19.940832Z","epoch_age_seconds":149829,"freshness":"FRESH","line1":"1 64256U 25120A   26263.35856413  .00005658  00000+0  17848-3 0  9991","line2":"2 64256  53.1586 286.6001 0001183  75.5530 284.5604 15.34395069 73806","mean_motion":15.34395069,"eccentricity":0.0001183,"inclination_deg":53.1586,"raan_deg":286.6001,"arg_perigee_deg":75.553,"mean_anomaly_deg":284.5604,"bstar":0.00017848,"rev_number":7380,"period_min":93.84805967465,"perigee_km":461.90862308329,"apogee_km":463.52716935174,"semimajor_km":6840.8548962175,"source":"CELESTRAK","updated_at":"2026-09-21T09:00:35.281342Z"}}}